Location: Gipe Farm
(40.9466°N, 95.5370°W)
Time: 20:55:55
(UTC-05:00)

Cosmos 1842 - Visible Passes

Search period start: 28 April 2016 00:00
Search period end: 08 May 2016 00:00
Orbit: 527 x 542 km, 82.5° (Epoch: 27 April)

Date Brightness Start Highest point End Pass type
(mag) Time Alt. Az. Time Alt. Az. Time Alt. Az.
28 Apr 5.7 02:41:39 21° NE 02:41:39 21° NE 02:43:23 10° NNE visible
28 Apr 5.3 04:17:02 17° NW 04:17:02 17° NW 04:18:49 10° NNW visible
29 Apr 5.8 02:32:36 20° NE 02:32:36 20° NE 02:34:11 10° NNE visible
29 Apr 5.4 04:08:00 17° NW 04:08:00 17° NW 04:09:42 10° NNW visible
30 Apr 5.8 02:23:32 19° NE 02:23:32 19° NE 02:24:59 10° NNE visible
30 Apr 5.4 03:58:56 17° NW 03:58:56 17° NW 04:00:36 10° NNW visible
01 May 5.9 02:14:28 18° NE 02:14:28 18° NE 02:15:47 10° NNE visible
01 May 5.4 03:49:51 17° NW 03:49:51 17° NW 03:51:28 10° NNW visible
02 May 6.0 02:05:22 17° NE 02:05:22 17° NE 02:06:34 10° NNE visible
02 May 5.5 03:40:46 17° NW 03:40:46 17° NW 03:42:21 10° NNW visible
03 May 6.0 01:56:17 16° NE 01:56:17 16° NE 01:57:22 10° NNE visible
03 May 5.5 03:31:40 17° NW 03:31:40 17° NW 03:33:13 10° NNW visible
04 May 6.0 01:47:10 15° NE 01:47:10 15° NE 01:48:09 10° NE visible
04 May 5.5 03:22:33 17° NW 03:22:33 17° NW 03:24:05 10° NNW visible
05 May 6.1 01:38:02 15° NE 01:38:02 15° NE 01:38:56 10° NE visible
05 May 5.5 03:13:26 18° NW 03:13:26 18° NW 03:14:56 10° NNW visible
06 May 6.1 01:28:54 14° NE 01:28:54 14° NE 01:29:43 10° NE visible
06 May 5.6 03:04:18 18° NW 03:04:18 18° NW 03:05:48 10° NNW visible
07 May 6.1 01:19:45 14° NE 01:19:45 14° NE 01:20:28 10° NE visible
07 May 5.6 02:55:09 18° NW 02:55:09 18° NW 02:56:40 10° NNW visible
